Location: Unspecified
(58.7730°N, 5.8460°E)
Time: 20:16:45
(UTC+01:00)

Okean 3 - Visible Passes

Search period start: 28 February 2015 00:00
Search period end: 10 March 2015 00:00
Orbit: 581 x 607 km, 82.5° (Epoch: 27 February)

Date Brightness Start Highest point End Pass type
(mag) Time Alt. Az. Time Alt. Az. Time Alt. Az.
28 Feb 6.4 03:27:49 10° ESE 03:29:45 13° E 03:31:50 10° NE visible
28 Feb 3.7 05:03:29 20° S 05:06:25 72° E 05:10:42 10° NNE visible
28 Feb 4.8 06:40:53 10° WSW 06:44:17 22° WNW 06:47:38 10° N visible
01 Mar 6.1 03:36:47 12° ESE 03:39:04 18° E 03:41:58 10° NE visible
01 Mar 3.4 05:13:26 25° SSW 05:15:55 83° WNW 05:20:14 10° NNE visible
01 Mar 5.1 06:51:06 10° W 06:54:02 17° NW 06:56:52 10° NNW visible
02 Mar 5.7 03:46:38 18° ESE 03:48:25 23° E 03:51:50 10° NE visible
02 Mar 3.5 05:23:17 27° SW 05:25:28 61° WNW 05:29:43 10° N visible
03 Mar 5.1 03:56:25 25° SE 03:57:47 31° E 04:01:35 10° NNE visible
03 Mar 3.8 05:33:04 26° SW 05:35:03 44° WNW 05:39:11 10° N visible
04 Mar 4.6 04:06:09 35° SE 04:07:11 42° E 04:11:15 10° NNE visible
04 Mar 4.2 05:42:48 23° WSW 05:44:41 33° WNW 05:48:35 10° N visible
05 Mar 6.4 02:39:19 10° E 02:40:06 11° ENE 02:41:04 10° ENE visible
05 Mar 3.9 04:15:49 48° SE 04:16:37 58° E 04:20:51 10° NNE visible
05 Mar 4.6 05:52:28 19° W 05:54:21 26° WNW 05:57:56 10° N visible
06 Mar 6.1 02:48:49 14° E 02:49:22 14° E 02:51:44 10° NE visible
06 Mar 3.5 04:25:28 63° S 04:26:06 81° ESE 04:30:22 10° NNE visible
06 Mar 4.9 06:02:07 15° W 06:04:03 20° WNW 06:07:12 10° N visible
07 Mar 5.8 02:58:26 19° E 02:58:41 19° E 03:01:45 10° NE visible
07 Mar 3.3 04:35:04 64° SW 04:35:36 75° WNW 04:39:52 10° N visible
07 Mar 5.2 06:11:42 12° W 06:13:47 16° NW 06:16:22 10° NNW visible
08 Mar 5.4 03:08:00 25° E 03:08:00 25° E 03:11:33 10° NNE visible
08 Mar 3.6 04:44:39 51° W 04:45:08 54° WNW 04:49:19 10° N visible
08 Mar 5.5 06:21:39 10° WNW 06:23:34 12° NW 06:25:21 10° NNW visible
09 Mar 4.9 03:17:33 34° E 03:17:33 34° E 03:21:15 10° NNE visible
09 Mar 3.9 04:54:11 38° W 04:54:43 40° WNW 04:58:45 10° N visible
